Regional Weather Roundup
Issued by NWS Goodland, KS

Home | Current Version | Previous Version | Graphics & Text | Print | Product List | Glossary On
Versions: 1 2 3 4 5 6 7 8 9 10 11 12 13 14 15 16 17 18 19 20 21 22 23 24 25 26 27 28 29 30 31 32 33 34 35 36 37 38 39 40 41 42 43 44 45 46 47 48 49 50
000
ASUS43 KGLD 261159
RWRGLD

GOODLAND FORECAST AREA HOURLY WEATHER ROUNDUP
NATIONAL WEATHER SERVICE GOODLAND KS
600 AM MDT FRI MAY 26 2017

...OFFICIAL OBSERVATIONS...

CITY           SKY/WX    TMP DP  RH WIND       PRES   REMARKS
GOODLAND KS    CLOUDY    54  51  90 W10       29.90R
HILL CITY KS   CLEAR     59  55  87 NW7       29.80R
IMPERIAL NEB   CLOUDY    50  44  80 N9        29.92R
MCCOOK NEB     PTCLDY    56  47  71 N8        29.88R
AKRON CO       CLOUDY    43  40  89 N7        29.97R
BURLINGTON CO  CLOUDY    53  51  93 S3        29.90F
LIMON CO       CLOUDY    42  42 100 W5        29.97R
$$

...UNOFFICIAL OBSERVATIONS...

CITY           SKY/WX    TMP DP  RH WIND       PRES   REMARKS
LENORA KS        N/A     53  32  45 MISG        N/A
NORTON KS      CLEAR     55  50  82 NW12      29.82R
SHARON SPRINGS   N/A     54  50  86 NW12        N/A
TRENTON NEB      N/A     53  32  45 N9          N/A
KIT CARSON CO    N/A     53  48  83 MISG        N/A
YUMA CO        FAIR      45  36  70 N8        29.95R
$$




USA.gov is the U.S. government's official web portal to all federal, state and local government web resources and services.